Year,Month,Day,Hour,Minute,Value (Times are PST for temperature in C)
2021,04,17,00,00,13.50
2021,04,17,00,01,13.40
2021,04,17,00,02,13.40
2021,04,17,00,03,13.50
2021,04,17,00,04,13.50
2021,04,17,00,05,13.60
2021,04,17,00,06,13.60
2021,04,17,00,07,13.60
2021,04,17,00,08,13.70
2021,04,17,00,09,13.70
2021,04,17,00,10,13.70
2021,04,17,00,11,13.70
2021,04,17,00,12,13.70
2021,04,17,00,13,13.80
2021,04,17,00,14,13.80
2021,04,17,00,15,13.80
2021,04,17,00,16,13.90
2021,04,17,00,17,14.00
2021,04,17,00,18,14.00
2021,04,17,00,19,14.10
2021,04,17,00,20,14.20
2021,04,17,00,21,14.30
2021,04,17,00,22,14.40
2021,04,17,00,23,14.50
2021,04,17,00,24,14.50
2021,04,17,00,25,14.60
2021,04,17,00,26,14.70
2021,04,17,00,27,14.70
2021,04,17,00,28,14.70
2021,04,17,00,29,14.70
2021,04,17,00,30,14.70
2021,04,17,00,31,14.70
2021,04,17,00,32,14.70
2021,04,17,00,33,14.70
2021,04,17,00,34,14.70
2021,04,17,00,35,14.70
2021,04,17,00,36,14.60
2021,04,17,00,37,14.60
2021,04,17,00,38,14.60
2021,04,17,00,39,14.60
2021,04,17,00,40,14.50
2021,04,17,00,41,14.50
2021,04,17,00,42,14.40
2021,04,17,00,43,14.40
2021,04,17,00,44,14.30
2021,04,17,00,45,14.30
2021,04,17,00,46,14.20
2021,04,17,00,47,14.10
2021,04,17,00,48,14.00
2021,04,17,00,49,13.90
2021,04,17,00,50,13.80
2021,04,17,00,51,13.70
2021,04,17,00,52,13.70
2021,04,17,00,53,13.60
2021,04,17,00,54,13.60
2021,04,17,00,55,13.60
2021,04,17,00,56,13.60
2021,04,17,00,57,13.70
2021,04,17,00,58,13.80
2021,04,17,00,59,13.90
2021,04,17,01,00,14.00
2021,04,17,01,01,14.10
2021,04,17,01,02,14.20
2021,04,17,01,03,14.30
2021,04,17,01,04,14.40
2021,04,17,01,05,14.50
2021,04,17,01,06,14.60
2021,04,17,01,07,14.70
2021,04,17,01,08,14.80
2021,04,17,01,09,14.80
2021,04,17,01,10,14.80
2021,04,17,01,11,14.90
2021,04,17,01,12,14.90
2021,04,17,01,13,14.90
2021,04,17,01,14,15.00
2021,04,17,01,15,15.00
2021,04,17,01,16,15.00
2021,04,17,01,17,15.00
2021,04,17,01,18,15.00
2021,04,17,01,19,15.00
2021,04,17,01,20,15.00
2021,04,17,01,21,15.00
2021,04,17,01,22,15.00
2021,04,17,01,23,15.00
2021,04,17,01,24,15.00
2021,04,17,01,25,15.00
2021,04,17,01,26,15.00
2021,04,17,01,27,15.00
2021,04,17,01,28,15.00
2021,04,17,01,29,14.90
2021,04,17,01,30,14.90
2021,04,17,01,31,14.90
2021,04,17,01,32,14.90
2021,04,17,01,33,14.90
2021,04,17,01,34,14.90
2021,04,17,01,35,14.90
2021,04,17,01,36,14.90
2021,04,17,01,37,14.90
2021,04,17,01,38,14.90
2021,04,17,01,39,14.90
2021,04,17,01,40,14.90
2021,04,17,01,41,14.90
2021,04,17,01,42,15.00
2021,04,17,01,43,15.00
2021,04,17,01,44,15.00
2021,04,17,01,45,15.00
2021,04,17,01,46,15.00
2021,04,17,01,47,15.00
2021,04,17,01,48,15.00
2021,04,17,01,49,15.00
2021,04,17,01,50,15.00
2021,04,17,01,51,14.90
2021,04,17,01,52,14.90
2021,04,17,01,53,14.90
2021,04,17,01,54,14.90
2021,04,17,01,55,14.90
2021,04,17,01,56,14.80
2021,04,17,01,57,14.80
2021,04,17,01,58,14.80
2021,04,17,01,59,14.80
2021,04,17,02,00,14.70
2021,04,17,02,01,14.70
2021,04,17,02,02,14.70
2021,04,17,02,03,14.70
2021,04,17,02,04,14.60
2021,04,17,02,05,14.70
2021,04,17,02,06,14.70
2021,04,17,02,07,14.70
2021,04,17,02,08,14.60
2021,04,17,02,09,14.60
2021,04,17,02,10,14.60
2021,04,17,02,11,14.60
2021,04,17,02,12,14.60
2021,04,17,02,13,14.50
2021,04,17,02,14,14.50
2021,04,17,02,15,14.50
2021,04,17,02,16,14.40
2021,04,17,02,17,14.40
2021,04,17,02,18,14.30
2021,04,17,02,19,14.30
2021,04,17,02,20,14.20
2021,04,17,02,21,14.20
2021,04,17,02,22,14.20
2021,04,17,02,23,14.10
2021,04,17,02,24,14.10
2021,04,17,02,25,14.00
2021,04,17,02,26,13.90
2021,04,17,02,27,13.90
2021,04,17,02,28,13.80
2021,04,17,02,29,13.80
2021,04,17,02,30,13.80
2021,04,17,02,31,13.70
2021,04,17,02,32,13.60
2021,04,17,02,33,13.60
2021,04,17,02,34,13.50
2021,04,17,02,35,13.40
2021,04,17,02,36,13.40
2021,04,17,02,37,13.40
2021,04,17,02,38,13.30
2021,04,17,02,39,13.30
2021,04,17,02,40,13.20
2021,04,17,02,41,13.20
2021,04,17,02,42,13.20
2021,04,17,02,43,13.10
2021,04,17,02,44,13.10
2021,04,17,02,45,13.10
2021,04,17,02,46,13.10
2021,04,17,02,47,13.00
2021,04,17,02,48,13.00
2021,04,17,02,49,13.00
2021,04,17,02,50,12.90
2021,04,17,02,51,12.90
2021,04,17,02,52,12.90
2021,04,17,02,53,12.80
2021,04,17,02,54,12.80
2021,04,17,02,55,12.80
2021,04,17,02,56,12.80
2021,04,17,02,57,12.80
2021,04,17,02,58,12.80
2021,04,17,02,59,12.80
2021,04,17,03,00,12.80
2021,04,17,03,01,12.80
2021,04,17,03,02,12.80
2021,04,17,03,03,12.80
2021,04,17,03,04,12.80
2021,04,17,03,05,12.90
2021,04,17,03,06,12.90
2021,04,17,03,07,12.90
2021,04,17,03,08,12.90
2021,04,17,03,09,13.00
2021,04,17,03,10,13.00
2021,04,17,03,11,13.10
2021,04,17,03,12,13.10
2021,04,17,03,13,13.10
2021,04,17,03,14,13.10
2021,04,17,03,15,13.00
2021,04,17,03,16,13.00
2021,04,17,03,17,13.00
2021,04,17,03,18,12.90
2021,04,17,03,19,12.90
2021,04,17,03,20,12.80
2021,04,17,03,21,12.70
2021,04,17,03,22,12.60
2021,04,17,03,23,12.60
2021,04,17,03,24,12.50
2021,04,17,03,25,12.40
2021,04,17,03,26,12.40
2021,04,17,03,27,12.30
2021,04,17,03,28,12.20
2021,04,17,03,29,12.10
2021,04,17,03,30,12.00
2021,04,17,03,31,11.90
2021,04,17,03,32,11.80
2021,04,17,03,33,11.70
2021,04,17,03,34,11.60
2021,04,17,03,35,11.60
2021,04,17,03,36,11.50
2021,04,17,03,37,11.50
2021,04,17,03,38,11.40
2021,04,17,03,39,11.40
2021,04,17,03,40,11.40
2021,04,17,03,41,11.30
2021,04,17,03,42,11.30
2021,04,17,03,43,11.30
2021,04,17,03,44,11.30
2021,04,17,03,45,11.40
2021,04,17,03,46,11.40
2021,04,17,03,47,11.50
2021,04,17,03,48,11.50
2021,04,17,03,49,11.60
2021,04,17,03,50,11.70
2021,04,17,03,51,11.70
2021,04,17,03,52,11.80
2021,04,17,03,53,11.80
2021,04,17,03,54,11.90
2021,04,17,03,55,11.90
2021,04,17,03,56,12.00
2021,04,17,03,57,12.00
2021,04,17,03,58,12.00
2021,04,17,03,59,12.00
2021,04,17,04,00,11.90
2021,04,17,04,01,11.90
2021,04,17,04,02,12.00
2021,04,17,04,03,12.00
2021,04,17,04,04,12.00
2021,04,17,04,05,12.00
2021,04,17,04,06,12.10
2021,04,17,04,07,12.10
2021,04,17,04,08,12.10
2021,04,17,04,09,12.10
2021,04,17,04,10,12.10
2021,04,17,04,11,12.10
2021,04,17,04,12,12.10
2021,04,17,04,13,12.00
2021,04,17,04,14,12.00
2021,04,17,04,15,11.90
2021,04,17,04,16,11.90
2021,04,17,04,17,12.00
2021,04,17,04,18,12.00
2021,04,17,04,19,12.00
2021,04,17,04,20,12.00
2021,04,17,04,21,12.00
2021,04,17,04,22,12.00
2021,04,17,04,23,12.00
2021,04,17,04,24,11.90
2021,04,17,04,25,11.90
2021,04,17,04,26,11.90
2021,04,17,04,27,11.90
2021,04,17,04,28,11.80
2021,04,17,04,29,11.80
2021,04,17,04,30,11.80
2021,04,17,04,31,11.70
2021,04,17,04,32,11.70
2021,04,17,04,33,11.70
2021,04,17,04,34,11.70
2021,04,17,04,35,11.70
2021,04,17,04,36,11.70
2021,04,17,04,37,11.70
2021,04,17,04,38,11.60
2021,04,17,04,39,11.60
2021,04,17,04,40,11.60
2021,04,17,04,41,11.50
2021,04,17,04,42,11.40
2021,04,17,04,43,11.40
2021,04,17,04,44,11.30
2021,04,17,04,45,11.30
2021,04,17,04,46,11.20
2021,04,17,04,47,11.20
2021,04,17,04,48,11.10
2021,04,17,04,49,11.10
2021,04,17,04,50,11.00
2021,04,17,04,51,11.00
2021,04,17,04,52,11.00
2021,04,17,04,53,11.00
2021,04,17,04,54,11.00
2021,04,17,04,55,11.00
2021,04,17,04,56,11.00
2021,04,17,04,57,11.00
2021,04,17,04,58,11.00
2021,04,17,04,59,11.00
2021,04,17,05,00,11.10
2021,04,17,05,01,11.10
2021,04,17,05,02,11.10
2021,04,17,05,03,11.10
2021,04,17,05,04,11.10
2021,04,17,05,05,11.10
2021,04,17,05,06,11.10
2021,04,17,05,07,11.10
2021,04,17,05,08,11.10
2021,04,17,05,09,11.10
2021,04,17,05,10,11.10
2021,04,17,05,11,11.10
2021,04,17,05,12,11.10
2021,04,17,05,13,11.10
2021,04,17,05,14,11.10
2021,04,17,05,15,11.10
2021,04,17,05,16,11.10
2021,04,17,05,17,11.20
2021,04,17,05,18,11.20
2021,04,17,05,19,11.20
2021,04,17,05,20,11.20
2021,04,17,05,21,11.20
2021,04,17,05,22,11.20
2021,04,17,05,23,11.20
2021,04,17,05,24,11.10
2021,04,17,05,25,11.10
2021,04,17,05,26,11.00
2021,04,17,05,27,10.90
2021,04,17,05,28,10.80
2021,04,17,05,29,10.80
2021,04,17,05,30,10.70
2021,04,17,05,31,10.70
2021,04,17,05,32,10.70
2021,04,17,05,33,10.70
2021,04,17,05,34,10.70
2021,04,17,05,35,10.80
2021,04,17,05,36,10.80
2021,04,17,05,37,10.90
2021,04,17,05,38,11.00
2021,04,17,05,39,11.00
2021,04,17,05,40,11.10
2021,04,17,05,41,11.20
2021,04,17,05,42,11.30
2021,04,17,05,43,11.40
2021,04,17,05,44,11.50
2021,04,17,05,45,11.60
2021,04,17,05,46,11.80
2021,04,17,05,47,11.80
2021,04,17,05,48,11.90
2021,04,17,05,49,12.00
2021,04,17,05,50,12.10
2021,04,17,05,51,12.10
2021,04,17,05,52,12.20
2021,04,17,05,53,12.20
2021,04,17,05,54,12.20
2021,04,17,05,55,12.30
2021,04,17,05,56,12.30
2021,04,17,05,57,12.30
2021,04,17,05,58,12.30
2021,04,17,05,59,12.30
2021,04,17,06,00,12.30
2021,04,17,06,01,12.20
2021,04,17,06,02,12.20
2021,04,17,06,03,12.20
2021,04,17,06,04,12.20
2021,04,17,06,05,12.10
2021,04,17,06,06,12.10
2021,04,17,06,07,12.10
2021,04,17,06,08,12.00
2021,04,17,06,09,12.00
2021,04,17,06,10,12.00
2021,04,17,06,11,12.00
2021,04,17,06,12,12.00
2021,04,17,06,13,12.00
2021,04,17,06,14,12.00
2021,04,17,06,15,12.00
2021,04,17,06,16,12.10
2021,04,17,06,17,12.10
2021,04,17,06,18,12.10
2021,04,17,06,19,12.10
2021,04,17,06,20,12.10
2021,04,17,06,21,12.10
2021,04,17,06,22,12.10
2021,04,17,06,23,12.10
2021,04,17,06,24,12.20
2021,04,17,06,25,12.20
2021,04,17,06,26,12.20
2021,04,17,06,27,12.20
2021,04,17,06,28,12.20
2021,04,17,06,29,12.20
2021,04,17,06,30,12.20
2021,04,17,06,31,12.20
2021,04,17,06,32,12.20
2021,04,17,06,33,12.20
2021,04,17,06,34,12.20
2021,04,17,06,35,12.20
2021,04,17,06,36,12.20
2021,04,17,06,37,12.10
2021,04,17,06,38,12.10
2021,04,17,06,39,12.10
2021,04,17,06,40,12.10
2021,04,17,06,41,12.00
2021,04,17,06,42,12.00
2021,04,17,06,43,12.00
2021,04,17,06,44,12.00
2021,04,17,06,45,12.00
2021,04,17,06,46,11.90
2021,04,17,06,47,12.00
2021,04,17,06,48,11.90
2021,04,17,06,49,12.00
2021,04,17,06,50,11.90
2021,04,17,06,51,11.90
2021,04,17,06,52,11.90
2021,04,17,06,53,11.90
2021,04,17,06,54,11.90
2021,04,17,06,55,11.90
2021,04,17,06,56,12.00
2021,04,17,06,57,11.90
2021,04,17,06,58,12.00
2021,04,17,06,59,12.00
2021,04,17,07,00,12.00
2021,04,17,07,01,12.00
2021,04,17,07,02,12.10
2021,04,17,07,03,12.10
2021,04,17,07,04,12.10
2021,04,17,07,05,12.10
2021,04,17,07,06,12.20
2021,04,17,07,07,12.20
2021,04,17,07,08,12.20
2021,04,17,07,09,12.20
2021,04,17,07,10,12.30
2021,04,17,07,11,12.30
2021,04,17,07,12,12.30
2021,04,17,07,13,12.40
2021,04,17,07,14,12.40
2021,04,17,07,15,12.40
2021,04,17,07,16,12.50
2021,04,17,07,17,12.50
2021,04,17,07,18,12.50
2021,04,17,07,19,12.60
2021,04,17,07,20,12.60
2021,04,17,07,21,12.70
2021,04,17,07,22,12.70
2021,04,17,07,23,12.70
2021,04,17,07,24,12.70
2021,04,17,07,25,12.80
2021,04,17,07,26,12.80
2021,04,17,07,27,12.80
2021,04,17,07,28,12.90
2021,04,17,07,29,12.90
2021,04,17,07,30,12.90
2021,04,17,07,31,13.00
2021,04,17,07,32,13.00
2021,04,17,07,33,13.10
2021,04,17,07,34,13.10
2021,04,17,07,35,13.20
2021,04,17,07,36,13.20
2021,04,17,07,37,13.30
2021,04,17,07,38,13.30
2021,04,17,07,39,13.30
2021,04,17,07,40,13.40
2021,04,17,07,41,13.40
2021,04,17,07,42,13.50
2021,04,17,07,43,13.60
2021,04,17,07,44,13.60
2021,04,17,07,45,13.60
2021,04,17,07,46,13.70
2021,04,17,07,47,13.70
2021,04,17,07,48,13.80
2021,04,17,07,49,13.80
2021,04,17,07,50,13.80
2021,04,17,07,51,13.90
2021,04,17,07,52,13.90
2021,04,17,07,53,13.90
2021,04,17,07,54,14.00
2021,04,17,07,55,14.00
2021,04,17,07,56,14.10
2021,04,17,07,57,14.10
2021,04,17,07,58,14.10
2021,04,17,07,59,14.20
2021,04,17,08,00,14.20
2021,04,17,08,01,14.20
2021,04,17,08,02,14.30
2021,04,17,08,03,14.30
2021,04,17,08,04,14.30
2021,04,17,08,05,14.30
2021,04,17,08,06,14.40
2021,04,17,08,07,14.40
2021,04,17,08,08,14.40
2021,04,17,08,09,14.50
2021,04,17,08,10,14.50
2021,04,17,08,11,14.60
2021,04,17,08,12,14.60
2021,04,17,08,13,14.60
2021,04,17,08,14,14.60
2021,04,17,08,15,14.60
2021,04,17,08,16,14.60
2021,04,17,08,17,14.60
2021,04,17,08,18,14.60
2021,04,17,08,19,14.70
2021,04,17,08,20,14.70
2021,04,17,08,21,14.70
2021,04,17,08,22,14.70
2021,04,17,08,23,14.70
2021,04,17,08,24,14.70
2021,04,17,08,25,14.70
2021,04,17,08,26,14.70
2021,04,17,08,27,14.70
2021,04,17,08,28,14.70
2021,04,17,08,29,14.80
2021,04,17,08,30,14.80
2021,04,17,08,31,14.80
2021,04,17,08,32,14.80
2021,04,17,08,33,14.80
2021,04,17,08,34,14.90
2021,04,17,08,35,14.90
2021,04,17,08,36,14.90
2021,04,17,08,37,15.00
2021,04,17,08,38,15.00
2021,04,17,08,39,15.10
2021,04,17,08,40,15.10
2021,04,17,08,41,15.10
2021,04,17,08,42,15.10
2021,04,17,08,43,15.20
2021,04,17,08,44,15.20
2021,04,17,08,45,15.20
2021,04,17,08,46,15.20
2021,04,17,08,47,15.20
2021,04,17,08,48,15.20
2021,04,17,08,49,15.20
2021,04,17,08,50,15.30
2021,04,17,08,51,15.30
2021,04,17,08,52,15.30
2021,04,17,08,53,15.40
2021,04,17,08,54,15.40
2021,04,17,08,55,15.40
2021,04,17,08,56,15.40
2021,04,17,08,57,15.40
2021,04,17,08,58,15.40
2021,04,17,08,59,15.40
2021,04,17,09,00,15.40
2021,04,17,09,01,15.40
2021,04,17,09,02,15.50
2021,04,17,09,03,15.50
2021,04,17,09,04,15.50
2021,04,17,09,05,15.50
2021,04,17,09,06,15.60
2021,04,17,09,07,15.60
2021,04,17,09,08,15.60
2021,04,17,09,09,15.70
2021,04,17,09,10,15.70
2021,04,17,09,11,15.70
2021,04,17,09,12,15.80
2021,04,17,09,13,15.80
2021,04,17,09,14,15.90
2021,04,17,09,15,16.00
2021,04,17,09,16,16.00
2021,04,17,09,17,16.10
2021,04,17,09,18,16.20
2021,04,17,09,19,16.20
2021,04,17,09,20,16.20
2021,04,17,09,21,16.20
2021,04,17,09,22,16.20
2021,04,17,09,23,16.20
2021,04,17,09,24,16.30
2021,04,17,09,25,16.30
2021,04,17,09,26,16.30
2021,04,17,09,27,16.30
2021,04,17,09,28,16.40
2021,04,17,09,29,16.40
2021,04,17,09,30,16.40
2021,04,17,09,31,16.50
2021,04,17,09,32,16.50
2021,04,17,09,33,16.50
2021,04,17,09,34,16.50
2021,04,17,09,35,16.50
2021,04,17,09,36,16.50
2021,04,17,09,37,16.50
2021,04,17,09,38,16.50
2021,04,17,09,39,16.40
2021,04,17,09,40,16.40
2021,04,17,09,41,16.40
2021,04,17,09,42,16.40
2021,04,17,09,43,16.30
2021,04,17,09,44,16.30
2021,04,17,09,45,16.30
2021,04,17,09,46,16.30
2021,04,17,09,47,16.30
2021,04,17,09,48,16.30
2021,04,17,09,49,16.30
2021,04,17,09,50,16.30
2021,04,17,09,51,16.40
2021,04,17,09,52,16.50
2021,04,17,09,53,16.50
2021,04,17,09,54,16.60
2021,04,17,09,55,16.60
2021,04,17,09,56,16.60
2021,04,17,09,57,16.70
2021,04,17,09,58,16.80
2021,04,17,09,59,16.80
2021,04,17,10,00,16.80
2021,04,17,10,01,16.90
2021,04,17,10,02,16.90
2021,04,17,10,03,16.80
2021,04,17,10,04,16.80
2021,04,17,10,05,16.80
2021,04,17,10,06,16.80
2021,04,17,10,07,16.90
2021,04,17,10,08,16.90
2021,04,17,10,09,17.00
2021,04,17,10,10,17.00
2021,04,17,10,11,17.10
2021,04,17,10,12,17.20
2021,04,17,10,13,17.30
2021,04,17,10,14,17.30
2021,04,17,10,15,17.40
2021,04,17,10,16,17.50
2021,04,17,10,17,17.50
2021,04,17,10,18,17.50
2021,04,17,10,19,17.50
2021,04,17,10,20,17.50
2021,04,17,10,21,17.60
2021,04,17,10,22,17.60
2021,04,17,10,23,17.70
2021,04,17,10,24,17.70
2021,04,17,10,25,17.70
2021,04,17,10,26,17.80
2021,04,17,10,27,17.80
2021,04,17,10,28,17.80
2021,04,17,10,29,17.80
2021,04,17,10,30,17.80
2021,04,17,10,31,17.80
2021,04,17,10,32,17.80
2021,04,17,10,33,17.80
2021,04,17,10,34,17.90
2021,04,17,10,35,17.90
2021,04,17,10,36,17.90
2021,04,17,10,37,17.90
2021,04,17,10,38,17.90
2021,04,17,10,39,17.90
2021,04,17,10,40,17.90
2021,04,17,10,41,17.90
2021,04,17,10,42,17.90
2021,04,17,10,43,17.90
2021,04,17,10,44,17.90
2021,04,17,10,45,17.80
2021,04,17,10,46,17.80
2021,04,17,10,47,17.70
2021,04,17,10,48,17.70
2021,04,17,10,49,17.70
2021,04,17,10,50,17.60
2021,04,17,10,51,17.50
2021,04,17,10,52,17.40
2021,04,17,10,53,17.40
2021,04,17,10,54,17.30
2021,04,17,10,55,17.30
2021,04,17,10,56,17.30
2021,04,17,10,57,17.40
2021,04,17,10,58,17.50
2021,04,17,10,59,17.60
2021,04,17,11,00,17.70
2021,04,17,11,01,17.70
2021,04,17,11,02,17.80
2021,04,17,11,03,17.90
2021,04,17,11,04,18.00
2021,04,17,11,05,18.10
2021,04,17,11,06,18.20
2021,04,17,11,07,18.20
2021,04,17,11,08,18.20
2021,04,17,11,09,18.30
2021,04,17,11,10,18.30
2021,04,17,11,11,18.30
2021,04,17,11,12,18.40
2021,04,17,11,13,18.30
2021,04,17,11,14,18.30
2021,04,17,11,15,18.40
2021,04,17,11,16,18.40
2021,04,17,11,17,18.40
2021,04,17,11,18,18.40
2021,04,17,11,19,18.40
2021,04,17,11,20,18.40
2021,04,17,11,21,18.40
2021,04,17,11,22,18.40
2021,04,17,11,23,18.40
2021,04,17,11,24,18.40
2021,04,17,11,25,18.40
2021,04,17,11,26,18.50
2021,04,17,11,27,18.50
2021,04,17,11,28,18.50
2021,04,17,11,29,18.50
2021,04,17,11,30,18.60
2021,04,17,11,31,18.60
2021,04,17,11,32,18.70
2021,04,17,11,33,18.70
2021,04,17,11,34,18.70
2021,04,17,11,35,18.60
2021,04,17,11,36,18.60
2021,04,17,11,37,18.60
2021,04,17,11,38,18.70
2021,04,17,11,39,18.70
2021,04,17,11,40,18.80
2021,04,17,11,41,18.80
2021,04,17,11,42,18.80
2021,04,17,11,43,18.80
2021,04,17,11,44,18.90
2021,04,17,11,45,18.90
2021,04,17,11,46,18.90
2021,04,17,11,47,18.90
2021,04,17,11,48,18.90
2021,04,17,11,49,19.00
2021,04,17,11,50,19.00
2021,04,17,11,51,19.00
2021,04,17,11,52,19.00
2021,04,17,11,53,19.10
2021,04,17,11,54,19.10
2021,04,17,11,55,19.20
2021,04,17,11,56,19.20
2021,04,17,11,57,19.20
2021,04,17,11,58,19.20
2021,04,17,11,59,19.20
2021,04,17,12,00,19.20
2021,04,17,12,01,19.20
2021,04,17,12,02,19.20
2021,04,17,12,03,19.20
2021,04,17,12,04,19.20
2021,04,17,12,05,19.20
2021,04,17,12,06,19.20
2021,04,17,12,07,19.30
2021,04,17,12,08,19.40
2021,04,17,12,09,19.40
2021,04,17,12,10,19.50
2021,04,17,12,11,19.60
2021,04,17,12,12,19.70
2021,04,17,12,13,19.80
2021,04,17,12,14,19.90
2021,04,17,12,15,20.00
2021,04,17,12,16,20.10
2021,04,17,12,17,20.00
2021,04,17,12,18,20.00
2021,04,17,12,19,20.00
2021,04,17,12,20,19.90
2021,04,17,12,21,19.90
2021,04,17,12,22,19.90
2021,04,17,12,23,19.90
2021,04,17,12,24,19.90
2021,04,17,12,25,19.90
2021,04,17,12,26,19.90
2021,04,17,12,27,20.00
2021,04,17,12,28,20.00
2021,04,17,12,29,20.00
2021,04,17,12,30,20.00
2021,04,17,12,31,20.00
2021,04,17,12,32,20.10
2021,04,17,12,33,20.10
2021,04,17,12,34,20.10
2021,04,17,12,35,20.20
2021,04,17,12,36,20.20
2021,04,17,12,37,20.20
2021,04,17,12,38,20.20
2021,04,17,12,39,20.30
2021,04,17,12,40,20.30
2021,04,17,12,41,20.40
2021,04,17,12,42,20.40
2021,04,17,12,43,20.50
2021,04,17,12,44,20.60
2021,04,17,12,45,20.60
2021,04,17,12,46,20.60
2021,04,17,12,47,20.50
2021,04,17,12,48,20.50
2021,04,17,12,49,20.50
2021,04,17,12,50,20.50
2021,04,17,12,51,20.60
2021,04,17,12,52,20.60
2021,04,17,12,53,20.60
2021,04,17,12,54,20.70
2021,04,17,12,55,20.70
2021,04,17,12,56,20.80
2021,04,17,12,57,20.80
2021,04,17,12,58,20.80
2021,04,17,12,59,20.70
2021,04,17,13,00,20.60
2021,04,17,13,01,20.60
2021,04,17,13,02,20.70
2021,04,17,13,03,20.70
2021,04,17,13,04,20.70
2021,04,17,13,05,20.80
2021,04,17,13,06,20.80
2021,04,17,13,07,20.80
2021,04,17,13,08,20.80
2021,04,17,13,09,20.80
2021,04,17,13,10,20.90
2021,04,17,13,11,21.00
2021,04,17,13,12,21.00
2021,04,17,13,13,21.20
2021,04,17,13,14,21.20
2021,04,17,13,15,21.30
2021,04,17,13,16,21.30
2021,04,17,13,17,21.30
2021,04,17,13,18,21.30
2021,04,17,13,19,21.40
2021,04,17,13,20,21.40
2021,04,17,13,21,21.50
2021,04,17,13,22,21.60
2021,04,17,13,23,21.70
2021,04,17,13,24,21.70
2021,04,17,13,25,21.70
2021,04,17,13,26,21.70
2021,04,17,13,27,21.70
2021,04,17,13,28,21.70
2021,04,17,13,29,21.60
2021,04,17,13,30,21.60
2021,04,17,13,31,21.60
2021,04,17,13,32,21.60
2021,04,17,13,33,21.60
2021,04,17,13,34,21.50
2021,04,17,13,35,21.50
2021,04,17,13,36,21.40
2021,04,17,13,37,21.40
2021,04,17,13,38,21.50
2021,04,17,13,39,21.50
2021,04,17,13,40,21.60
2021,04,17,13,41,21.60
2021,04,17,13,42,21.70
2021,04,17,13,43,21.70
2021,04,17,13,44,21.70
2021,04,17,13,45,21.80
2021,04,17,13,46,21.80
2021,04,17,13,47,21.80
2021,04,17,13,48,21.80
2021,04,17,13,49,21.80
2021,04,17,13,50,21.90
2021,04,17,13,51,22.00
2021,04,17,13,52,22.10
2021,04,17,13,53,22.20
2021,04,17,13,54,22.30
2021,04,17,13,55,22.30
2021,04,17,13,56,22.30
2021,04,17,13,57,22.20
2021,04,17,13,58,22.20
2021,04,17,13,59,22.10
2021,04,17,14,00,22.10
2021,04,17,14,01,22.00
2021,04,17,14,02,21.90
2021,04,17,14,03,21.90
2021,04,17,14,04,21.90
2021,04,17,14,05,22.00
2021,04,17,14,06,22.00
2021,04,17,14,07,22.00
2021,04,17,14,08,21.90
2021,04,17,14,09,21.90
2021,04,17,14,10,21.90
2021,04,17,14,11,21.80
2021,04,17,14,12,21.90
2021,04,17,14,13,22.00
2021,04,17,14,14,22.00
2021,04,17,14,15,22.10
2021,04,17,14,16,22.10
2021,04,17,14,17,22.10
2021,04,17,14,18,22.00
2021,04,17,14,19,21.90
2021,04,17,14,20,21.90
2021,04,17,14,21,22.00
2021,04,17,14,22,22.10
2021,04,17,14,23,22.10
2021,04,17,14,24,22.20
2021,04,17,14,25,22.30
2021,04,17,14,26,22.30
2021,04,17,14,27,22.20
2021,04,17,14,28,22.10
2021,04,17,14,29,22.00
2021,04,17,14,30,21.90
2021,04,17,14,31,22.00
2021,04,17,14,32,22.00
2021,04,17,14,33,22.00
2021,04,17,14,34,22.10
2021,04,17,14,35,22.20
2021,04,17,14,36,22.30
2021,04,17,14,37,22.30
2021,04,17,14,38,22.40
2021,04,17,14,39,22.40
2021,04,17,14,40,22.50
2021,04,17,14,41,22.60
2021,04,17,14,42,22.60
2021,04,17,14,43,22.60
2021,04,17,14,44,22.60
2021,04,17,14,45,22.50
2021,04,17,14,46,22.40
2021,04,17,14,47,22.30
2021,04,17,14,48,22.30
2021,04,17,14,49,22.30
2021,04,17,14,50,22.30
2021,04,17,14,51,22.40
2021,04,17,14,52,22.40
2021,04,17,14,53,22.40
2021,04,17,14,54,22.50
2021,04,17,14,55,22.50
2021,04,17,14,56,22.60
2021,04,17,14,57,22.60
2021,04,17,14,58,22.60
2021,04,17,14,59,22.60
2021,04,17,15,00,22.60
2021,04,17,15,01,22.50
2021,04,17,15,02,22.50
2021,04,17,15,03,22.40
2021,04,17,15,04,22.40
2021,04,17,15,05,22.50
2021,04,17,15,06,22.50
2021,04,17,15,07,22.60
2021,04,17,15,08,22.60
2021,04,17,15,09,22.60
2021,04,17,15,10,22.70
2021,04,17,15,11,22.70
2021,04,17,15,12,22.70
2021,04,17,15,13,22.70
2021,04,17,15,14,22.70
2021,04,17,15,15,22.70
2021,04,17,15,16,22.70
2021,04,17,15,17,22.70
2021,04,17,15,18,22.70
2021,04,17,15,19,22.70
2021,04,17,15,20,22.70
2021,04,17,15,21,22.70
2021,04,17,15,22,22.70
2021,04,17,15,23,22.70
2021,04,17,15,24,22.70
2021,04,17,15,25,22.80
2021,04,17,15,26,22.80
2021,04,17,15,27,22.80
2021,04,17,15,28,22.80
2021,04,17,15,29,22.80
2021,04,17,15,30,22.80
2021,04,17,15,31,22.70
2021,04,17,15,32,22.70
2021,04,17,15,33,22.70
2021,04,17,15,34,22.70
2021,04,17,15,35,22.60
2021,04,17,15,36,22.60
2021,04,17,15,37,22.70
2021,04,17,15,38,22.70
2021,04,17,15,39,22.70
2021,04,17,15,40,22.80
2021,04,17,15,41,22.80
2021,04,17,15,42,22.80
2021,04,17,15,43,22.70
2021,04,17,15,44,22.80
2021,04,17,15,45,22.80
2021,04,17,15,46,22.70
2021,04,17,15,47,22.60
2021,04,17,15,48,22.60
2021,04,17,15,49,22.60
2021,04,17,15,50,22.70
2021,04,17,15,51,22.70
2021,04,17,15,52,22.80
2021,04,17,15,53,22.80
2021,04,17,15,54,22.80
2021,04,17,15,55,22.90
2021,04,17,15,56,22.90
2021,04,17,15,57,22.90
2021,04,17,15,58,22.90
2021,04,17,15,59,22.80
2021,04,17,16,00,22.80
2021,04,17,16,01,22.80
2021,04,17,16,02,22.80
2021,04,17,16,03,22.80
2021,04,17,16,04,22.90
2021,04,17,16,05,22.90
2021,04,17,16,06,23.00
2021,04,17,16,07,23.10
2021,04,17,16,08,23.20
2021,04,17,16,09,23.20
2021,04,17,16,10,23.20
2021,04,17,16,11,23.30
2021,04,17,16,12,23.30
2021,04,17,16,13,23.30
2021,04,17,16,14,23.30
2021,04,17,16,15,23.30
2021,04,17,16,16,23.30
2021,04,17,16,17,23.30
2021,04,17,16,18,23.20
2021,04,17,16,19,23.20
2021,04,17,16,20,23.20
2021,04,17,16,21,23.10
2021,04,17,16,22,23.10
2021,04,17,16,23,23.10
2021,04,17,16,24,23.10
2021,04,17,16,25,23.00
2021,04,17,16,26,23.00
2021,04,17,16,27,23.00
2021,04,17,16,28,23.00
2021,04,17,16,29,23.10
2021,04,17,16,30,23.10
2021,04,17,16,31,23.20
2021,04,17,16,32,23.20
2021,04,17,16,33,23.20
2021,04,17,16,34,23.20
2021,04,17,16,35,23.20
2021,04,17,16,36,23.20
2021,04,17,16,37,23.20
2021,04,17,16,38,23.20
2021,04,17,16,39,23.20
2021,04,17,16,40,23.20
2021,04,17,16,41,23.20
2021,04,17,16,42,23.30
2021,04,17,16,43,23.30
2021,04,17,16,44,23.30
2021,04,17,16,45,23.40
2021,04,17,16,46,23.40
2021,04,17,16,47,23.50
2021,04,17,16,48,23.50
2021,04,17,16,49,23.50
2021,04,17,16,50,23.60
2021,04,17,16,51,23.60
2021,04,17,16,52,23.60
2021,04,17,16,53,23.70
2021,04,17,16,54,23.70
2021,04,17,16,55,23.60
2021,04,17,16,56,23.50
2021,04,17,16,57,23.50
2021,04,17,16,58,23.50
2021,04,17,16,59,23.40
2021,04,17,17,00,23.40
2021,04,17,17,01,23.40
2021,04,17,17,02,23.40
2021,04,17,17,03,23.40
2021,04,17,17,04,23.30
2021,04,17,17,05,23.30
2021,04,17,17,06,23.20
2021,04,17,17,07,23.20
2021,04,17,17,08,23.10
2021,04,17,17,09,23.10
2021,04,17,17,10,23.10
2021,04,17,17,11,23.10
2021,04,17,17,12,23.20
2021,04,17,17,13,23.20
2021,04,17,17,14,23.20
2021,04,17,17,15,23.20
2021,04,17,17,16,23.20
2021,04,17,17,17,23.20
2021,04,17,17,18,23.20
2021,04,17,17,19,23.30